Location: Unspecified
(37.6100°N, 2.7800°W)
Time: 19:17:33
(UTC+00:00)

Tiangong 1 - Visible Passes

Search period start: 18 November 2017 00:00
Search period end: 28 November 2017 00:00
Orbit: 285 x 309 km, 42.8° (Epoch: 18 November)

Date Brightness Start Highest point End Pass type
(mag) Time Alt. Az. Time Alt. Az. Time Alt. Az.
23 Nov 2.6 18:05:48 10° S 18:07:36 17° SE 18:07:45 17° SE visible
24 Nov 1.3 18:11:41 10° SW 18:14:06 36° SSE 18:14:16 36° SE visible
25 Nov 0.4 18:17:59 10° WSW 18:20:34 83° SSE 18:20:35 83° SE visible
26 Nov 1.2 18:24:27 10° W 18:26:45 48° NW 18:26:45 48° NW visible
27 Nov 2.3 18:30:57 10° W 18:32:44 28° NW 18:32:44 28° NW visible
